Home   Weather   Evansville   Past weeks

Flag for USA Past Weather in Evansville, Indiana, USA — Yesterday and Last 2 Weeks

Now
68 °F

Mostly cloudy.


Feels Like: 68 °F
Forecast: 57 / 69 °F
Wind: 5 mph from West

Location: Evansville Regional Airport

Current Time: Oct 1, 2016 at 12:18:04 PM

Latest Report: Oct 1, 2016 at 12:01 PM


Visibility: 10 mi

Pressure: 30.03 "Hg

Humidity: 76%

Dew Point: 60 °F

Location of EvansvilleLocation

Past Weather in Evansville — Graph

°F

Evansville Temperature Yesterday

Maximum temperature yesterday: 72 °F (at 2:54 PM)
Minimum temperature yesterday: 56 °F (at 1:54 AM)
Average temperature yesterday: 61 °F

High & Low Weather Summary for the Past Weeks

 TemperatureHumidityPressure
High91 °F (Sep 23, 1:54 PM)97% (Sep 18, 12:54 AM)30.16 "Hg (Sep 18, 12:54 AM)
Low49 °F (Sep 27, 5:54 AM)30% (Sep 20, 3:54 PM)29.79 "Hg (Sep 28, 7:54 AM)
Average71 °F72%30.03 "Hg
* Reported Sep 16 10:54 AM — Oct 1 10:54 AM, Evansville, Weather by CustomWeather, © 2016

Note: Actual official high and low records may vary slightly from our data, if they occured in-between our weather recording intervals... More about our weather records

Advertising

Evansville Weather History for the Previous 24 Hours

Scroll right to see more
 ConditionsComfort  
Time TempWeatherWind HumidityBarometerVisibility
10:54 AM
Sat, Oct 1
66 °FMostly cloudy.9 mph81%30.02 "Hg7 mi
9:54 AM64 °FFog.7 mph87%30.03 "Hg5 mi
8:54 AM61 °FFog.No wind93%30.03 "Hg2 mi
7:54 AM60 °FFog.No wind93%30.03 "Hg1 mi
6:54 AM59 °FFog.No wind96%30.01 "Hg1 mi
5:54 AM59 °FFog.No wind93%30.00 "Hg0 mi
4:54 AM58 °FFog.3 mph93%29.99 "Hg1 mi
3:54 AM58 °FFog.No wind93%29.99 "Hg6 mi
2:54 AM57 °FFog.No wind93%29.99 "Hg5 mi
1:54 AM57 °FFog.No wind96%29.99 "Hg4 mi
1:04 AM58 °FFog.No wind93%30.00 "Hg5 mi
12:54 AM58 °FFog.No wind93%29.99 "Hg5 mi
11:54 PM
Fri, Sep 30
57 °FFog.No wind93%30.01 "Hg4 mi
11:02 PM57 °FFog.No wind93%30.01 "Hg1 mi
9:54 PM58 °FFog.No wind93%30.00 "Hg6 mi
8:54 PM58 °FClear.No wind93%29.99 "Hg10 mi
7:54 PM59 °FLight rain. Mostly cloudy.5 mph90%29.99 "Hg10 mi
6:54 PM59 °FHeavy rain. Fog.3 mph90%30.01 "Hg2 mi
5:54 PM60 °FLight rain. Fog.6 mph90%30.01 "Hg5 mi
4:54 PM69 °FPartly sunny.No wind53%29.97 "Hg10 mi
3:54 PM70 °FSunny.No wind51%29.98 "Hg10 mi
2:54 PM72 °FScattered clouds.8 mph52%29.98 "Hg10 mi
1:54 PM70 °FPartly sunny.5 mph55%29.99 "Hg10 mi
12:54 PM69 °FPartly sunny.6 mph57%30.01 "Hg10 mi
Weather by CustomWeather, © 2016

See weather overviewHow to use our weather pages